| time (UTC) | temp F | wind direction | speed MPH | gust MPH | rain 1hr in | rain 24hr in | rain mn in | humidity % | barometer mb |
| 20260508061552 | 48 | 0 | 0.0 | 12.0 | 0.00 | 0.13 | 0.00 | 76 | 1011.7 |
| 20260508060049 | 49 | 0 | 0.0 | 0.0 | 0.00 | 0.13 | 0.00 | 70 | 1011.1 |
| 20260508054550 | 48 | 0 | 0.0 | 1.0 | 0.00 | 0.14 | 0.00 | 76 | 1010.7 |
| 20260508053050 | 48 | 0 | 0.0 | 0.0 | 0.00 | 0.14 | 0.00 | 76 | 1009.0 |
| 20260508051548 | 48 | 0 | 0.0 | 0.0 | 0.00 | 0.14 | 0.00 | 75 | 1009.1 |
| 20260508050043 | 48 | 0 | 0.0 | 0.0 | 0.00 | 0.14 | 0.00 | 74 | 1009.0 |
| 20260508044547 | 48 | 0 | 0.0 | 0.0 | 0.00 | 0.14 | 0.00 | 74 | 1009.3 |
| 20260508043059 | 49 | 0 | 0.0 | 0.0 | 0.00 | 0.14 | 0.00 | 73 | 1009.0 |
| 20260508041547 | 49 | 0 | 0.0 | 0.0 | 0.00 | 0.14 | 0.00 | 70 | 1009.0 |
| 20260508040053 | 49 | 0 | 0.0 | 0.0 | 0.00 | 0.14 | 0.00 | 68 | 1009.0 |
| 20260508034548 | 49 | 0 | 0.0 | 0.0 | 0.00 | 0.14 | 0.14 | 67 | 1009.0 |
| 20260508033046 | 49 | 0 | 0.0 | 0.0 | 0.00 | 0.14 | 0.14 | 68 | 1009.2 |
| 20260508031552 | 48 | 0 | 0.0 | 0.0 | 0.00 | 0.14 | 0.14 | 67 | 1009.1 |
| 20260508030052 | 49 | 0 | 0.0 | 0.0 | 0.00 | 0.14 | 0.14 | 66 | 1008.9 |
| 20260508024557 | 49 | 0 | 0.0 | 0.0 | 0.00 | 0.14 | 0.14 | 65 | 1009.1 |
| 20260508023051 | 49 | 0 | 0.0 | 0.0 | 0.00 | 0.14 | 0.14 | 63 | 1009.2 |
| 20260508021547 | 50 | 0 | 0.0 | 0.0 | 0.00 | 0.14 | 0.14 | 64 | 1009.1 |
| 20260508020048 | 50 | 0 | 0.0 | 0.0 | 0.00 | 0.14 | 0.14 | 60 | 1009.0 |
| 20260508014546 | 51 | 0 | 0.0 | 0.0 | 0.00 | 0.14 | 0.14 | 58 | 1008.9 |
| 20260508013046 | 52 | 0 | 0.0 | 0.0 | 0.00 | 0.14 | 0.14 | 57 | 1008.9 |
| 20260508011547 | 52 | 0 | 0.0 | 0.0 | 0.00 | 0.14 | 0.14 | 56 | 1008.8 |
| 20260508010042 | 54 | 0 | 0.0 | 0.0 | 0.00 | 0.14 | 0.14 | 53 | 1008.7 |
| 20260508004553 | 55 | 0 | 0.0 | 0.0 | 0.00 | 0.14 | 0.14 | 50 | 1008.7 |
| 20260508003049 | 56 | 0 | 0.0 | 0.0 | 0.00 | 0.14 | 0.14 | 48 | 1008.3 |
| 20260508001549 | 57 | 0 | 0.0 | 0.0 | 0.00 | 0.14 | 0.14 | 47 | 1008.2 |
| 20260508000047 | 58 | 0 | 0.0 | 0.0 | 0.00 | 0.14 | 0.14 | 45 | 1007.9 |
| 20260507234544 | 59 | 0 | 0.0 | 0.0 | 0.00 | 0.14 | 0.14 | 43 | 1008.1 |
| 20260507233047 | 60 | 0 | 0.0 | 0.0 | 0.00 | 0.14 | 0.14 | 43 | 1007.8 |
| 20260507231543 | 61 | 0 | 0.0 | 1.0 | 0.00 | 0.14 | 0.14 | 41 | 1007.7 |
| 20260507230041 | 61 | 0 | 0.0 | 2.0 | 0.00 | 0.14 | 0.14 | 40 | 1007.7 |
| 20260507224547 | 63 | 0 | 0.0 | 1.0 | 0.00 | 0.14 | 0.14 | 39 | 1007.6 |
| 20260507223046 | 63 | 0 | 0.0 | 3.0 | 0.00 | 0.14 | 0.14 | 40 | 1007.6 |
| 20260507221543 | 63 | 259 | 0.0 | 4.0 | 0.00 | 0.14 | 0.14 | 39 | 1007.6 |
| 20260507220052 | 64 | 265 | 2.0 | 11.0 | 0.00 | 0.14 | 0.14 | 38 | 1007.6 |
| 20260507214552 | 64 | 0 | 1.0 | 6.0 | 0.00 | 0.14 | 0.14 | 36 | 1007.5 |
| 20260507213056 | 63 | 0 | 0.0 | 5.0 | 0.00 | 0.14 | 0.14 | 39 | 1007.6 |
| 20260507211544 | 65 | 0 | 0.0 | 4.0 | 0.00 | 0.14 | 0.14 | 39 | 1007.4 |
| 20260507210050 | 64 | 253 | 3.0 | 13.0 | 0.00 | 0.14 | 0.14 | 39 | 1007.3 |
| 20260507204555 | 61 | 0 | 0.0 | 6.0 | 0.00 | 0.14 | 0.14 | 40 | 1007.3 |
| 20260507203048 | 62 | 0 | 0.0 | 4.0 | 0.00 | 0.14 | 0.14 | 41 | 1007.5 |
| 20260507201550 | 64 | 298 | 1.0 | 5.0 | 0.00 | 0.14 | 0.14 | 41 | 1007.3 |
| 20260507200051 | 64 | 273 | 1.0 | 6.0 | 0.00 | 0.14 | 0.14 | 40 | 1007.4 |
| 20260507194553 | 63 | 0 | 0.0 | 8.0 | 0.00 | 0.22 | 0.14 | 39 | 1007.4 |
| 20260507193051 | 64 | 263 | 0.0 | 10.0 | 0.00 | 0.22 | 0.14 | 42 | 1007.6 |
| 20260507191608 | 63 | 0 | 1.0 | 7.0 | 0.00 | 0.22 | 0.14 | 40 | 1007.9 |
| 20260507190047 | 63 | 286 | 4.0 | 15.0 | 0.00 | 0.22 | 0.14 | 42 | 1008.0 |
| 20260507184557 | 62 | 0 | 1.0 | 11.0 | 0.00 | 0.23 | 0.14 | 43 | 1008.1 |
| 20260507183049 | 62 | 0 | 2.0 | 11.0 | 0.00 | 0.23 | 0.14 | 42 | 1008.3 |
| 20260507181546 | 62 | 0 | 0.0 | 11.0 | 0.00 | 0.23 | 0.14 | 42 | 1008.4 |
| 20260507180046 | 62 | 0 | 2.0 | 10.0 | 0.00 | 0.23 | 0.14 | 43 | 1008.5 |
| 20260507174551 | 61 | 0 | 0.0 | 9.0 | 0.00 | 0.24 | 0.14 | 43 | 1008.5 |
| 20260507173051 | 61 | 272 | 4.0 | 12.0 | 0.00 | 0.24 | 0.14 | 42 | 1008.9 |
| 20260507171552 | 61 | 0 | 1.0 | 4.0 | 0.00 | 0.24 | 0.14 | 43 | 1009.0 |
| 20260507170050 | 61 | 24 | 0.0 | 10.0 | 0.00 | 0.24 | 0.14 | 41 | 1009.3 |
| 20260507164605 | 60 | 0 | 0.0 | 4.0 | 0.00 | 0.25 | 0.14 | 43 | 1009.5 |
| 20260507163047 | 60 | 338 | 0.0 | 7.0 | 0.00 | 0.25 | 0.14 | 44 | 1009.6 |
| 20260507161554 | 60 | 0 | 0.0 | 5.0 | 0.00 | 0.25 | 0.14 | 45 | 1009.8 |
| 20260507160052 | 60 | 0 | 0.0 | 5.0 | 0.00 | 0.25 | 0.14 | 47 | 1009.9 |
| 20260507154554 | 59 | 22 | 0.0 | 6.0 | 0.00 | 0.25 | 0.14 | 47 | 1010.1 |
| 20260507153046 | 59 | 0 | 1.0 | 4.0 | 0.00 | 0.25 | 0.14 | 46 | 1010.3 |
| 20260507151544 | 58 | 0 | 0.0 | 4.0 | 0.00 | 0.25 | 0.14 | 52 | 1010.4 |
| 20260507150049 | 58 | 0 | 2.0 | 6.0 | 0.00 | 0.25 | 0.14 | 49 | 1010.5 |
| 20260507144547 | 58 | 336 | 0.0 | 3.0 | 0.00 | 0.25 | 0.14 | 56 | 1010.5 |
| 20260507143104 | 58 | 0 | 0.0 | 4.0 | 0.00 | 0.25 | 0.14 | 58 | 1010.5 |
| 20260507141605 | 57 | 0 | 0.0 | 4.0 | 0.00 | 0.25 | 0.14 | 62 | 1010.4 |
| 20260507140047 | 56 | 0 | 0.0 | 4.0 | 0.00 | 0.25 | 0.14 | 62 | 1010.4 |
| 20260507134544 | 56 | 0 | 0.0 | 3.0 | 0.00 | 0.25 | 0.14 | 67 | 1010.4 |
| 20260507133042 | 55 | 0 | 0.0 | 5.0 | 0.00 | 0.25 | 0.14 | 71 | 1010.4 |
| 20260507131549 | 54 | 233 | 0.0 | 9.0 | 0.00 | 0.25 | 0.14 | 76 | 1010.4 |
| 20260507130047 | 53 | 0 | 0.0 | 2.0 | 0.00 | 0.25 | 0.14 | 77 | 1010.4 |
| 20260507124547 | 53 | 0 | 0.0 | 3.0 | 0.00 | 0.25 | 0.14 | 79 | 1010.4 |
| 20260507123102 | 52 | 0 | 0.0 | 10.0 | 0.00 | 0.25 | 0.14 | 81 | 1010.4 |
| 20260507121549 | 50 | 0 | 0.0 | 1.0 | 0.00 | 0.25 | 0.14 | 88 | 1010.3 |
| 20260507120048 | 49 | 0 | 0.0 | 0.0 | 0.00 | 0.25 | 0.14 | 89 | 1010.4 |
| 20260507114552 | 49 | 0 | 0.0 | 0.0 | 0.00 | 0.25 | 0.14 | 89 | 1010.3 |
| 20260507113047 | 48 | 0 | 0.0 | 1.0 | 0.00 | 0.25 | 0.14 | 90 | 1010.0 |
| 20260507111546 | 48 | 0 | 0.0 | 0.0 | 0.00 | 0.25 | 0.14 | 92 | 1009.8 |
| 20260507110049 | 48 | 0 | 0.0 | 0.0 | 0.00 | 0.25 | 0.14 | 92 | 1009.8 |
| 20260507104551 | 48 | 0 | 0.0 | 0.0 | 0.00 | 0.25 | 0.14 | 93 | 1009.6 |
| 20260507103046 | 48 | 0 | 0.0 | 0.0 | 0.00 | 0.25 | 0.14 | 94 | 1009.5 |
| 20260507101547 | 47 | 0 | 0.0 | 0.0 | 0.00 | 0.25 | 0.14 | 94 | 1009.1 |
| 20260507100054 | 47 | 0 | 0.0 | 1.0 | 0.00 | 0.25 | 0.14 | 95 | 1009.1 |
| 20260507094550 | 48 | 0 | 0.0 | 0.0 | 0.00 | 0.25 | 0.14 | 95 | 1009.3 |
| 20260507093048 | 48 | 0 | 0.0 | 0.0 | 0.00 | 0.25 | 0.14 | 95 | 1008.9 |
| 20260507091551 | 48 | 0 | 0.0 | 0.0 | 0.00 | 0.25 | 0.14 | 96 | 1008.8 |
| 20260507090058 | 48 | 0 | 0.0 | 0.0 | 0.01 | 0.25 | 0.14 | 96 | 1008.9 |
| 20260507084554 | 48 | 0 | 0.0 | 0.0 | 0.01 | 0.25 | 0.14 | 96 | 1008.9 |
| 20260507083044 | 49 | 0 | 0.0 | 0.0 | 0.03 | 0.25 | 0.14 | 96 | 1009.0 |
| 20260507081554 | 49 | 0 | 0.0 | 0.0 | 0.03 | 0.25 | 0.14 | 96 | 1009.1 |
| 20260507080111 | 49 | 0 | 0.0 | 0.0 | 0.04 | 0.24 | 0.13 | 95 | 1008.9 |
| 20260507074547 | 49 | 0 | 0.0 | 0.0 | 0.06 | 0.24 | 0.13 | 95 | 1009.2 |
| 20260507073050 | 50 | 0 | 0.0 | 0.0 | 0.06 | 0.22 | 0.11 | 95 | 1009.2 |
| 20260507071549 | 50 | 0 | 0.0 | 0.0 | 0.08 | 0.22 | 0.11 | 95 | 1009.1 |
| 20260507070054 | 50 | 0 | 0.0 | 0.0 | 0.08 | 0.20 | 0.09 | 94 | 1009.0 |
| 20260507064619 | 51 | 0 | 0.0 | 0.0 | 0.06 | 0.18 | 0.07 | 93 | 1009.1 |
| 20260507063052 | 51 | 0 | 0.0 | 0.0 | 0.05 | 0.16 | 0.05 | 92 | 1008.8 |